Location: Newark
(59.4564°N, 26.6917°E)
Time: 15:58:31
(UTC+00:00)

Vanguard 3 - Pass Details

Date: 28 November 2019
Orbit: 508 x 3263 km, 33.3° (Epoch: 11 December)

Event Time Altitude Azimuth Distance (km) Brightness Sun altitude
Rises 14:28:05 0° 262° (W) 7,035 13.4 -7.2°
Reaches altitude 10° 14:34:41 10° 249° (WSW) 6,175 13.3 -8.0°
Maximum altitude 14:46:29 20° 212° (SSW) 5,286 12.1 -9.3°
Drops below altitude 10° 14:57:23 10° 174° (S) 5,623 11.7 -10.6°
Sets 15:02:59 0° 159° (SSE) 6,239 11.7 -11.2°
